Location: Newark
(7.0858°N, 171.3717°E)
Time: 01:50:13
(UTC+00:00)

Vanguard 2 - Visible Passes

Search period start: 19 May 2021 00:00
Search period end: 29 May 2021 00:00
Orbit: 552 x 2937 km, 32.9° (Epoch: 18 May)

Date Brightness Start Highest point End Pass type
(mag) Time Alt. Az. Time Alt. Az. Time Alt. Az.
19 May 10.1 15:39:52 16° NNW 15:40:35 16° N 15:45:07 10° NNE visible
19 May 10.9 17:48:42 10° NNW 17:53:31 14° N 17:59:26 10° NE visible
20 May 10.3 15:56:38 10° NNW 15:59:11 12° N 16:02:10 10° NNE visible
21 May 10.6 16:17:21 10° N 16:17:55 10° N 16:18:30 10° N visible
24 May 11.0 17:11:35 10° N 17:14:16 11° NNE 17:17:19 10° NE visible
25 May 11.0 17:28:27 10° N 17:32:51 14° NNE 17:38:19 10° NE visible
26 May 10.9 17:45:28 10° NNW 17:51:15 19° NNE 17:58:58 10° ENE visible
28 May 9.8 07:33:31 10° S 07:35:40 11° SSE 07:37:14 10° SE visible
